KD7CTY Weather Reports


time (UTC)temp
C
wind
direction
speed
KPH
gust
KPH
rain 1hr
cm
rain 24hr
cm
rain mn
cm
humidity
%
barometer
mb
20260504014321 26 32 3.2 3.2 0.00 0.00 0.00 35 1008.7
20260504013819 26 19 4.8 8.0 0.00 0.00 0.00 34 1008.7
20260504013317 26 40 4.8 4.8 0.00 0.00 0.00 34 1008.6
20260504012813 26 356 6.4 8.0 0.00 0.00 0.00 34 1008.7
20260504012311 26 357 3.2 3.2 0.00 0.00 0.00 34 1009.0
20260504011808 26 42 3.2 3.2 0.00 0.00 0.00 37 1009.1
20260504011304 26 70 3.2 8.0 0.00 0.00 0.00 36 1009.2
20260504010800 26 15 4.8 4.8 0.00 0.00 0.00 35 1009.0
20260504010256 27 12 4.8 8.0 0.00 0.00 0.00 34 1009.0
20260504005753 26 42 8.0 9.7 0.00 0.00 0.00 35 1009.2
20260504005250 26 352 11.3 12.9 0.00 0.00 0.00 34 1009.2
20260504004748 27 27 3.2 4.8 0.00 0.00 0.00 35 1009.0
20260504004245 26 68 4.8 8.0 0.00 0.00 0.00 36 1009.3
20260504003741 27 356 4.8 4.8 0.00 0.00 0.00 35 1009.1
20260504003238 26 25 8.0 11.3 0.00 0.00 0.00 34 1009.3
20260504002735 27 28 4.8 4.8 0.00 0.00 0.00 35 1009.3
20260504002232 27 4 1.6 1.6 0.00 0.00 0.00 40 1009.5
20260504001730 27 28 4.8 8.0 0.00 0.00 0.00 35 1009.5
20260504001226 27 20 4.8 4.8 0.00 0.00 0.00 35 1009.5
20260504000723 27 23 4.8 11.3 0.00 0.00 0.00 36 1009.4
20260504000220 27 18 0.0 1.6 0.00 0.00 0.00 38 1009.6
20260503235718 27 341 3.2 3.2 0.00 0.00 0.00 36 1009.5
20260503235215 27 54 8.0 9.7 0.00 0.00 0.00 35 1009.6
20260503234713 27 13 8.0 9.7 0.00 0.00 0.00 35 1009.6
20260503234211 27 23 6.4 9.7 0.00 0.00 0.00 34 1009.4
20260503233708 27 27 8.0 9.7 0.00 0.00 0.00 36 1009.7
20260503233203 27 36 6.4 8.0 0.00 0.00 0.00 35 1009.8
20260503232700 27 31 8.0 11.3 0.00 0.00 0.00 36 1009.6
20260503232157 27 7 4.8 8.0 0.00 0.00 0.00 35 1009.9
20260503231656 27 19 6.4 9.7 0.00 0.00 0.00 36 1009.8
20260503231151 27 356 6.4 11.3 0.00 0.00 0.00 35 1009.8
20260503230648 27 27 6.4 11.3 0.00 0.00 0.00 35 1009.9
20260503230145 27 31 1.6 3.2 0.00 0.00 0.00 39 1010.0
20260503225643 27 21 6.4 8.0 0.00 0.00 0.00 37 1010.2
20260503225143 27 25 3.2 4.8 0.00 0.00 0.00 37 1010.2
20260503224640 27 8 8.0 9.7 0.00 0.00 0.00 36 1010.2
20260503224138 27 15 3.2 3.2 0.00 0.00 0.00 38 1010.2
20260503223636 27 56 6.4 9.7 0.00 0.00 0.00 36 1010.4
20260503223132 27 15 3.2 8.0 0.00 0.00 0.00 37 1010.3
20260503222629 27 33 1.6 3.2 0.00 0.00 0.00 37 1010.5
20260503222127 27 16 6.4 8.0 0.00 0.00 0.00 37 1010.4
20260503221625 27 353 6.4 9.7 0.00 0.00 0.00 35 1010.7
20260503221122 27 26 4.8 4.8 0.00 0.00 0.00 36 1010.6
20260503220619 27 341 4.8 8.0 0.00 0.00 0.00 37 1010.5
20260503220115 27 17 4.8 4.8 0.00 0.00 0.00 36 1010.7
20260503215613 27 25 8.0 9.7 0.00 0.00 0.00 38 1010.8
20260503215109 27 21 6.4 8.0 0.00 0.00 0.00 37 1010.9
20260503214608 27 7 6.4 9.7 0.00 0.00 0.00 38 1010.9
20260503214104 27 342 6.4 8.0 0.00 0.00 0.00 38 1010.7
20260503213603 27 20 4.8 4.8 0.00 0.00 0.00 37 1010.9
20260503213058 27 46 3.2 3.2 0.00 0.00 0.00 40 1011.0
20260503212556 27 11 8.0 9.7 0.00 0.00 0.00 39 1011.1
20260503212053 27 9 1.6 1.6 0.00 0.00 0.00 39 1011.2
20260503211551 26 17 1.6 3.2 0.00 0.00 0.00 41 1011.4
20260503211046 26 40 8.0 9.7 0.00 0.00 0.00 38 1011.4
20260503210543 26 16 4.8 4.8 0.00 0.00 0.00 38 1010.9
20260503210038 26 73 6.4 9.7 0.00 0.00 0.00 38 1011.2
20260503205535 26 51 4.8 4.8 0.00 0.00 0.00 40 1011.5
20260503205032 26 77 1.6 3.2 0.00 0.00 0.00 41 1011.5
20260503204529 26 24 3.2 3.2 0.00 0.00 0.00 40 1011.2
20260503204026 26 17 6.4 8.0 0.00 0.00 0.00 40 1011.6
20260503203523 25 81 4.8 4.8 0.00 0.00 0.00 43 1011.7
20260503203020 25 23 4.8 9.7 0.00 0.00 0.00 44 1011.8
20260503202518 25 333 8.0 9.7 0.00 0.00 0.00 45 1011.6
20260503202016 25 17 3.2 3.2 0.00 0.00 0.00 46 1011.7
20260503201514 25 349 6.4 11.3 0.00 0.00 0.00 45 1011.7
20260503201011 25 24 1.6 1.6 0.00 0.00 0.00 47 1012.0
20260503200507 25 14 1.6 3.2 0.00 0.00 0.00 47 1011.7
20260503200004 25 20 4.8 8.0 0.00 0.00 0.00 46 1011.8
20260503195501 25 358 0.0 1.6 0.00 0.00 0.00 49 1012.0
20260503194957 25 16 8.0 11.3 0.00 0.00 0.00 45 1011.9
20260503194455 25 53 3.2 3.2 0.00 0.00 0.00 46 1012.3
20260503193949 25 7 11.3 12.9 0.00 0.00 0.00 46 1012.1
20260503193445 24 30 3.2 3.2 0.00 0.00 0.00 50 1012.2
20260503192941 25 46 1.6 3.2 0.00 0.00 0.00 48 1012.3
20260503192438 24 23 1.6 3.2 0.00 0.00 0.00 48 1012.5
20260503191933 24 39 1.6 1.6 0.00 0.00 0.00 48 1012.5
20260503191431 23 21 1.6 1.6 0.00 0.00 0.00 49 1012.4
20260503190927 24 10 6.4 8.0 0.00 0.00 0.00 49 1012.4
20260503190425 24 95 4.8 4.8 0.00 0.00 0.00 48 1012.6
20260503185922 23 6 3.2 3.2 0.00 0.00 0.00 50 1012.7
20260503185418 23 27 0.0 1.6 0.00 0.00 0.00 50 1012.8
20260503184917 23 23 4.8 8.0 0.00 0.00 0.00 49 1012.8
20260503184414 23 27 0.0 0.0 0.00 0.00 0.00 52 1012.8
20260503183910 22 0 6.4 8.0 0.00 0.00 0.00 50 1012.7
20260503183407 22 12 4.8 4.8 0.00 0.00 0.00 51 1012.9
20260503182904 22 45 4.8 9.7 0.00 0.00 0.00 50 1013.0
20260503182403 22 7 4.8 4.8 0.00 0.00 0.00 51 1012.8
20260503181900 22 23 4.8 9.7 0.00 0.00 0.00 51 1013.0
20260503181357 22 9 3.2 3.2 0.00 0.00 0.00 52 1013.0
20260503180853 22 19 1.6 1.6 0.00 0.00 0.00 52 1013.2
20260503180351 21 58 3.2 3.2 0.00 0.00 0.00 54 1013.1
20260503175847 21 22 9.7 12.9 0.00 0.00 0.00 54 1013.3
20260503175345 21 14 6.4 8.0 0.00 0.00 0.00 54 1013.0
20260503174841 21 11 6.4 8.0 0.00 0.00 0.00 54 1013.0
20260503174339 21 54 6.4 9.7 0.00 0.00 0.00 53 1013.0
20260503173834 21 28 6.4 8.0 0.00 0.00 0.00 54 1013.1
20260503173331 21 60 4.8 8.0 0.00 0.00 0.00 56 1013.2
20260503172828 21 19 8.0 9.7 0.00 0.00 0.00 56 1013.1
20260503172326 21 37 1.6 1.6 0.00 0.00 0.00 57 1012.8
20260503171821 21 26 3.2 3.2 0.00 0.00 0.00 57 1013.1
20260503171318 21 41 3.2 3.2 0.00 0.00 0.00 56 1013.1
20260503170816 20 21 4.8 4.8 0.00 0.00 0.00 57 1013.1
20260503170312 20 18 1.6 3.2 0.00 0.00 0.00 61 1013.3
20260503150704 15 25 3.2 3.2 0.00 0.00 0.00 69 1013.4
20260503150200 15 19 1.6 1.6 0.00 0.00 0.00 70 1013.4
20260503140125 14 20 3.2 3.2 0.00 0.00 0.00 72 1013.2
20260503131054 14 7 1.6 1.6 0.00 0.00 0.00 68 1012.9
20260503130551 14 25 1.6 1.6 0.00 0.00 0.00 68 1013.0
20260503110442 14 30 0.0 0.0 0.00 0.00 0.00 67 1013.4
20260503090327 12 37 0.0 1.6 0.00 0.00 0.00 78 1013.6
20260503081255 12 41 1.6 1.6 0.00 0.00 0.00 78 1013.7
20260503080750 12 39 0.0 1.6 0.00 0.00 0.00 80 1013.7
20260503080248 12 36 0.0 1.6 0.00 0.00 0.00 81 1013.5
20260503072725 12 27 0.0 0.0 0.00 0.00 0.00 80 1013.6
20260503072221 12 30 0.0 0.0 0.00 0.00 0.00 80 1013.6
20260503071718 12 26 0.0 0.0 0.00 0.00 0.00 77 1013.6
20260503071215 13 27 0.0 0.0 0.00 0.00 0.00 76 1013.4
20260503070712 13 29 0.0 0.0 0.00 0.00 0.00 75 1013.3
20260503070210 13 27 0.0 0.0 0.00 0.00 0.00 75 1013.5
20260503060134 14 27 0.0 0.0 0.00 0.00 0.00 69 1013.3
20260503055125 15 42 0.0 0.0 0.00 0.00 0.00 69 1013.2
20260503054621 15 33 0.0 0.0 0.00 0.00 0.00 68 1013.3
20260503054118 15 34 0.0 0.0 0.00 0.00 0.00 68 1013.2
20260503053616 15 27 0.0 0.0 0.00 0.00 0.00 67 1013.3
20260503053114 15 33 0.0 0.0 0.00 0.00 0.00 67 1013.4
20260503052610 15 31 0.0 0.0 0.00 0.00 0.00 66 1013.4
20260503052107 15 32 0.0 0.0 0.00 0.00 0.00 65 1013.2
20260503051602 15 28 0.0 0.0 0.00 0.00 0.00 64 1013.3
20260503051100 15 33 0.0 0.0 0.00 0.00 0.00 64 1013.1
20260503050556 15 40 0.0 1.6 0.00 0.00 0.00 64 1013.2
20260503050053 16 33 0.0 0.0 0.00 0.00 0.00 61 1013.2
20260503045550 16 28 0.0 0.0 0.00 0.00 0.00 59 1013.1
20260503045047 17 26 0.0 0.0 0.00 0.00 0.00 57 1013.1
20260503044544 17 30 0.0 0.0 0.00 0.00 0.00 57 1013.1
20260503044042 17 28 0.0 0.0 0.00 0.00 0.00 55 1012.9
20260503043538 17 26 0.0 0.0 0.00 0.00 0.00 55 1013.1
20260503043035 17 27 0.0 0.0 0.00 0.00 0.00 55 1013.0
20260503042532 17 29 0.0 0.0 0.00 0.00 0.00 54 1012.7
20260503042027 18 31 0.0 1.6 0.00 0.00 0.00 53 1012.8
20260503041525 18 39 0.0 0.0 0.00 0.00 0.00 54 1012.7
20260503041023 18 30 0.0 0.0 0.00 0.00 0.00 53 1012.6
20260503040520 18 27 0.0 1.6 0.00 0.00 0.00 53 1012.7
20260503040017 18 19 0.0 0.0 0.00 0.00 0.00 52 1012.6
20260503035514 18 15 1.6 3.2 0.00 0.00 0.00 51 1012.5
20260503035011 19 44 0.0 0.0 0.00 0.00 0.00 51 1012.4
20260503034508 19 71 3.2 3.2 0.00 0.00 0.00 50 1012.3
20260503034005 19 28 1.6 3.2 0.00 0.00 0.00 50 1012.5
20260503033502 19 52 0.0 0.0 0.00 0.00 0.00 50 1012.4
20260503033000 19 29 0.0 1.6 0.00 0.00 0.00 49 1012.3
20260503032459 20 31 1.6 1.6 0.00 0.00 0.00 48 1012.2
20260503031956 20 8 4.8 4.8 0.00 0.00 0.00 48 1012.2
20260503031454 20 65 1.6 1.6 0.00 0.00 0.00 48 1012.2
20260503030950 20 353 1.6 3.2 0.00 0.00 0.00 48 1012.3
20260503030446 20 5 3.2 3.2 0.00 0.00 0.00 47 1012.1
20260503025944 20 26 1.6 1.6 0.00 0.00 0.00 47 1012.0
20260503025440 21 13 3.2 3.2 0.00 0.00 0.00 46 1011.8
20260503024938 21 30 3.2 4.8 0.00 0.00 0.00 46 1011.7
20260503024434 21 60 1.6 1.6 0.00 0.00 0.00 46 1012.0
20260503023932 21 39 4.8 4.8 0.00 0.00 0.00 46 1011.9
20260503023429 22 30 1.6 3.2 0.00 0.00 0.00 45 1011.8
20260503022925 22 25 1.6 1.6 0.00 0.00 0.00 45 1011.9
20260503022420 22 28 4.8 4.8 0.00 0.00 0.00 45 1012.0
20260503021916 22 7 1.6 1.6 0.00 0.00 0.00 45 1011.9
20260503021412 22 43 1.6 1.6 0.00 0.00 0.00 45 1011.8
20260503020910 22 17 0.0 1.6 0.00 0.00 0.00 46 1012.0
20260503020408 22 18 1.6 1.6 0.00 0.00 0.00 45 1011.9
20260503015904 22 5 3.2 4.8 0.00 0.00 0.00 45 1012.0
20260503015401 23 28 3.2 4.8 0.00 0.00 0.00 44 1012.1
20260503014857 23 16 3.2 8.0 0.00 0.00 0.00 44 1012.1